Flag for Norway Weather past 2 weeks in Langesund, Norway

Now
68 °F

Mild.


Feels Like: 68 °F
Forecast: 52 / 70 °F
Wind: 3 mph from Southeast

Location: Jomfruland Fyr

Current Time: Jul 2, 2015 at 12:23:29 PM

Latest Report: Jul 2, 2015 at 11:00 AM


Visibility: N/A

Pressure: 30.34 "Hg

Humidity: 69%

Dew point: 58 °F

Location of LangesundLocation

Historic Weather in Langesund — Graph

°F

Langesund temperature yesterday

Maximum temperature yesterday: 69 °F (at 12:00 PM)
Minimum temperature yesterday: 56 °F (at 4:00 AM)
Average temperature yesterday: 62 °F

Past Weeks' High & Low Weather Summary

 TemperatureHumidityPressure
High69 °F (Jun 30, 11:00 AM)95% (Jul 1, 5:00 AM)30.35 "Hg (Jul 1, 5:00 AM)
Low49 °F (Jun 17, 11:00 AM)29% (Jun 25, 8:00 PM)29.61 "Hg (Jun 18, 7:00 AM)
Average59 °F73%29.89 "Hg
* Reported Jun 17 11:00 AM — Jul 2 11:00 AM, Langesund, Weather by CustomWeather, © 2015

Note: Actual official high and low records may vary slightly from our data, if they occured in-between our weather recording intervals... More about our weather records

Advertising

Langesund weather history for previous 24 hours

 ConditionsComfort  
Time TempWeatherWind HumidityBarometerVisibility
11:00 AM
Thu, Jul 2
68 °FMild.3 mph69%30.34 "HgN/A
10:00 AM67 °FMild.3 mph72%30.35 "HgN/A
9:00 AM66 °FMild.3 mph70%30.34 "HgN/A
8:00 AM65 °FMild.2 mph76%30.34 "HgN/A
7:00 AM61 °FCool.3 mph85%30.33 "HgN/A
6:00 AM58 °FCool.2 mph93%30.32 "HgN/A
5:00 AM56 °FCool.2 mph95%30.32 "HgN/A
4:00 AM55 °FCool.2 mph94%30.31 "HgN/A
3:00 AM56 °FCool.1 mph94%30.31 "HgN/A
2:00 AM57 °FCool.1 mph93%30.31 "HgN/A
1:00 AM56 °FCool.2 mph92%30.30 "HgN/A
12:00 AM57 °FCool.1 mph92%30.29 "HgN/A
11:00 PM
Wed, Jul 1
60 °FCool.1 mph87%30.29 "HgN/A
10:00 PM62 °FCool.3 mph83%30.28 "HgN/A
9:00 PM63 °FMild.5 mph79%30.27 "HgN/A
8:00 PM64 °FMild.5 mph69%30.26 "HgN/A
7:00 PM64 °FMild.7 mph73%30.25 "HgN/A
6:00 PM65 °FMild.7 mph72%30.25 "HgN/A
5:00 PM65 °FMild.7 mph73%30.26 "HgN/A
4:00 PM65 °FMild.8 mph75%30.26 "HgN/A
3:00 PM65 °FMild.8 mph75%30.25 "HgN/A
2:00 PM66 °FMild.6 mph70%30.25 "HgN/A
1:00 PM68 °FMild.5 mph63%30.25 "HgN/A
12:00 PM69 °FMild.5 mph55%30.24 "HgN/A
Weather by CustomWeather, © 2015

See weather overviewHow to use our weather pages